| time (UTC) | temp C | wind direction | speed KPH | gust KPH | rain 1hr cm | rain 24hr cm | rain mn cm | humidity % | barometer mb |
| 20260906181004 | 34 | 171 | 0.0 | 0.0 | 0.00 | 0.00 | 0.00 | 57 | 1015.3 |
| 20260906180005 | 33 | 184 | 0.0 | 9.7 | 0.00 | 0.00 | 0.00 | 58 | 1015.3 |
| 20260906175004 | 33 | 177 | 0.0 | 0.0 | 0.00 | 0.00 | 0.00 | 59 | 1015.5 |
| 20260906174004 | 33 | 222 | 0.0 | 0.0 | 0.00 | 0.00 | 0.00 | 60 | 1015.6 |
| 20260906173005 | 33 | 222 | 0.0 | 0.0 | 0.00 | 0.00 | 0.00 | 59 | 1015.9 |
| 20260906172004 | 33 | 233 | 0.0 | 0.0 | 0.00 | 0.00 | 0.00 | 59 | 1016.0 |
| 20260906171004 | 32 | 140 | 0.0 | 0.0 | 0.00 | 0.00 | 0.00 | 66 | 1016.0 |
| 20260906170004 | 32 | 248 | 0.0 | 0.0 | 0.00 | 0.00 | 0.00 | 66 | 1016.2 |
| 20260906165004 | 31 | 180 | 0.0 | 0.0 | 0.00 | 0.00 | 0.00 | 68 | 1016.4 |
| 20260906164004 | 31 | 225 | 0.0 | 0.0 | 0.00 | 0.00 | 0.00 | 68 | 1016.4 |
| 20260906163004 | 31 | 225 | 0.0 | 0.0 | 0.00 | 0.00 | 0.00 | 68 | 1016.3 |
| 20260906162005 | 30 | 112 | 0.0 | 0.0 | 0.00 | 0.00 | 0.00 | 69 | 1016.3 |
| 20260906161004 | 30 | 135 | 0.0 | 0.0 | 0.00 | 0.00 | 0.00 | 69 | 1016.3 |
| 20260906160004 | 31 | 129 | 0.0 | 9.7 | 0.00 | 0.00 | 0.00 | 69 | 1016.3 |
| 20260906155004 | 31 | 161 | 0.0 | 0.0 | 0.00 | 0.00 | 0.00 | 68 | 1016.1 |
| 20260906154004 | 31 | 186 | 0.0 | 0.0 | 0.00 | 0.00 | 0.00 | 69 | 1016.1 |
| 20260906153004 | 30 | 104 | 0.0 | 9.7 | 0.00 | 0.00 | 0.00 | 69 | 1016.0 |
| 20260906152004 | 30 | 163 | 3.2 | 4.8 | 0.00 | 0.00 | 0.00 | 72 | 1016.0 |
| 20260906151004 | 29 | 120 | 0.0 | 0.0 | 0.00 | 0.00 | 0.00 | 75 | 1016.0 |
| 20260906150004 | 28 | 202 | 0.0 | 0.0 | 0.00 | 0.00 | 0.00 | 80 | 1016.0 |
| 20260906145004 | 28 | 202 | 0.0 | 0.0 | 0.00 | 0.00 | 0.00 | 80 | 1015.9 |
| 20260906144004 | 28 | 140 | 0.0 | 0.0 | 0.00 | 0.00 | 0.00 | 80 | 1015.8 |
| 20260906143004 | 27 | 202 | 0.0 | 0.0 | 0.00 | 0.00 | 0.00 | 83 | 1015.9 |
| 20260906140004 | 26 | 180 | 0.0 | 0.0 | 0.00 | 0.00 | 0.00 | 83 | 1016.1 |
| 20260906135004 | 26 | 202 | 0.0 | 0.0 | 0.00 | 0.00 | 0.00 | 84 | 1016.0 |
| 20260906134004 | 27 | 202 | 0.0 | 0.0 | 0.00 | 0.00 | 0.00 | 83 | 1015.8 |
| 20260906133005 | 27 | 66 | 0.0 | 4.8 | 0.00 | 0.00 | 0.00 | 80 | 1015.8 |
| 20260906132004 | 26 | 125 | 0.0 | 0.0 | 0.00 | 0.00 | 0.00 | 80 | 1015.7 |
| 20260906131004 | 25 | 202 | 0.0 | 0.0 | 0.00 | 0.00 | 0.00 | 86 | 1015.7 |
| 20260906130004 | 25 | 197 | 0.0 | 0.0 | 0.00 | 0.00 | 0.00 | 87 | 1015.6 |
| 20260906125004 | 24 | 58 | 0.0 | 0.0 | 0.00 | 0.00 | 0.00 | 89 | 1015.4 |
| 20260906124004 | 22 | 105 | 0.0 | 0.0 | 0.00 | 0.00 | 0.00 | 95 | 1015.2 |
| 20260906123005 | 22 | 270 | 0.0 | 0.0 | 0.00 | 0.00 | 0.00 | 96 | 1015.1 |
| 20260906122005 | 21 | 248 | 0.0 | 0.0 | 0.00 | 0.00 | 0.00 | 96 | 1014.9 |
| 20260906121004 | 21 | 248 | 0.0 | 0.0 | 0.00 | 0.00 | 0.00 | 96 | 1014.8 |
| 20260906120004 | 21 | 112 | 0.0 | 0.0 | 0.00 | 0.00 | 0.00 | 96 | 1014.7 |
| 20260906115004 | 21 | 187 | 0.0 | 0.0 | 0.00 | 0.00 | 0.00 | 96 | 1014.7 |
| 20260906114004 | 21 | 248 | 0.0 | 0.0 | 0.00 | 0.00 | 0.00 | 96 | 1014.6 |
| 20260906112004 | 21 | 190 | 0.0 | 0.0 | 0.00 | 0.00 | 0.00 | 95 | 1014.6 |
| 20260906110004 | 22 | 202 | 0.0 | 0.0 | 0.00 | 0.00 | 0.00 | 95 | 1014.6 |
| 20260906104004 | 21 | 22 | 0.0 | 0.0 | 0.00 | 0.00 | 0.00 | 96 | 1014.5 |
| 20260906103004 | 21 | 65 | 0.0 | 0.0 | 0.00 | 0.00 | 0.00 | 96 | 1014.5 |
| 20260906102005 | 21 | 225 | 0.0 | 0.0 | 0.00 | 0.00 | 0.00 | 96 | 1014.5 |
| 20260906095004 | 22 | 180 | 0.0 | 0.0 | 0.00 | 0.00 | 0.00 | 95 | 1014.4 |
| 20260906094005 | 22 | 112 | 0.0 | 0.0 | 0.00 | 0.00 | 0.00 | 95 | 1014.5 |
| 20260906093004 | 22 | 112 | 0.0 | 0.0 | 0.00 | 0.00 | 0.00 | 95 | 1014.4 |
| 20260906091004 | 22 | 225 | 0.0 | 0.0 | 0.00 | 0.00 | 0.00 | 94 | 1014.3 |
| 20260906085004 | 22 | 225 | 0.0 | 0.0 | 0.00 | 0.00 | 0.00 | 93 | 1014.4 |
| 20260906084004 | 22 | 225 | 0.0 | 0.0 | 0.00 | 0.00 | 0.00 | 93 | 1014.4 |
| 20260906083004 | 22 | 225 | 0.0 | 0.0 | 0.00 | 0.00 | 0.00 | 92 | 1014.2 |
| 20260906082004 | 22 | 225 | 0.0 | 0.0 | 0.00 | 0.00 | 0.00 | 92 | 1014.1 |
| 20260906075005 | 23 | 225 | 0.0 | 0.0 | 0.00 | 0.00 | 0.00 | 91 | 1014.1 |
| 20260906074005 | 23 | 217 | 0.0 | 0.0 | 0.00 | 0.00 | 0.00 | 91 | 1014.1 |
| 20260906073004 | 23 | 80 | 0.0 | 0.0 | 0.00 | 0.00 | 0.00 | 91 | 1014.1 |
| 20260906072004 | 23 | 197 | 0.0 | 0.0 | 0.00 | 0.00 | 0.00 | 91 | 1014.2 |
| 20260906071004 | 23 | 22 | 0.0 | 0.0 | 0.00 | 0.00 | 0.00 | 91 | 1014.2 |
| 20260906070004 | 23 | 344 | 0.0 | 0.0 | 0.00 | 0.00 | 0.00 | 91 | 1014.2 |
| 20260906065004 | 23 | 270 | 0.0 | 0.0 | 0.00 | 0.00 | 0.00 | 90 | 1014.2 |
| 20260906064005 | 23 | 270 | 0.0 | 0.0 | 0.00 | 0.00 | 0.00 | 89 | 1014.4 |
| 20260906063004 | 24 | 215 | 0.0 | 0.0 | 0.00 | 0.00 | 0.00 | 88 | 1014.3 |
| 20260906062004 | 23 | 225 | 0.0 | 0.0 | 0.00 | 0.00 | 0.00 | 89 | 1014.4 |
| 20260906061004 | 23 | 183 | 0.0 | 0.0 | 0.00 | 0.00 | 0.00 | 88 | 1014.4 |
| 20260906060004 | 24 | 225 | 0.0 | 0.0 | 0.00 | 0.00 | 0.00 | 87 | 1014.4 |
| 20260906055004 | 25 | 223 | 0.0 | 0.0 | 0.00 | 0.00 | 0.00 | 86 | 1014.4 |
| 20260906054004 | 24 | 233 | 0.0 | 0.0 | 0.00 | 0.00 | 0.00 | 88 | 1014.3 |
| 20260906053004 | 25 | 202 | 0.0 | 0.0 | 0.00 | 0.00 | 0.00 | 87 | 1014.3 |
| 20260906052004 | 24 | 204 | 0.0 | 0.0 | 0.00 | 0.00 | 0.00 | 88 | 1014.4 |
| 20260906050005 | 24 | 240 | 0.0 | 0.0 | 0.00 | 0.00 | 0.00 | 89 | 1014.3 |
| 20260906045004 | 24 | 45 | 0.0 | 0.0 | 0.00 | 0.00 | 0.00 | 88 | 1014.3 |
| 20260906044004 | 24 | 315 | 0.0 | 0.0 | 0.00 | 0.00 | 0.00 | 87 | 1014.2 |
| 20260906043004 | 25 | 158 | 0.0 | 0.0 | 0.00 | 0.00 | 0.00 | 86 | 1014.1 |
| 20260906041004 | 25 | 256 | 0.0 | 0.0 | 0.00 | 0.00 | 0.00 | 86 | 1014.1 |
| 20260906035004 | 25 | 240 | 0.0 | 0.0 | 0.00 | 0.00 | 0.00 | 84 | 1014.0 |
| 20260906033005 | 26 | 183 | 0.0 | 1.6 | 0.00 | 0.00 | 0.00 | 82 | 1013.7 |
| 20260906032004 | 26 | 50 | 1.6 | 3.2 | 0.00 | 0.00 | 0.00 | 82 | 1013.7 |
| 20260906031004 | 26 | 235 | 0.0 | 0.0 | 0.00 | 0.00 | 0.00 | 82 | 1013.6 |
| 20260906030004 | 26 | 219 | 0.0 | 0.0 | 0.00 | 0.00 | 0.00 | 82 | 1013.4 |
| 20260906025004 | 26 | 202 | 0.0 | 1.6 | 0.00 | 0.00 | 0.00 | 80 | 1013.5 |
| 20260906023004 | 27 | 180 | 0.0 | 0.0 | 0.00 | 0.00 | 0.00 | 78 | 1013.0 |
| 20260906022004 | 27 | 169 | 0.0 | 0.0 | 0.00 | 0.00 | 0.00 | 77 | 1012.9 |
| 20260906021004 | 28 | 180 | 0.0 | 0.0 | 0.00 | 0.00 | 0.00 | 75 | 1012.9 |
| 20260906015004 | 28 | 202 | 0.0 | 0.0 | 0.00 | 0.00 | 0.00 | 73 | 1012.7 |
| 20260906012004 | 30 | 180 | 0.0 | 0.0 | 0.00 | 0.00 | 0.00 | 69 | 1012.3 |
| 20260906011004 | 30 | 180 | 0.0 | 0.0 | 0.00 | 0.00 | 0.00 | 65 | 1012.4 |
| 20260906010004 | 31 | 155 | 0.0 | 0.0 | 0.00 | 0.00 | 0.00 | 62 | 1012.4 |
| 20260906005006 | 32 | 140 | 0.0 | 0.0 | 0.00 | 0.00 | 0.00 | 60 | 1012.5 |
| 20260906004004 | 32 | 152 | 0.0 | 0.0 | 0.00 | 0.00 | 0.00 | 58 | 1012.5 |
| 20260906003005 | 33 | 197 | 0.0 | 0.0 | 0.00 | 0.00 | 0.00 | 55 | 1012.4 |
| 20260906002004 | 33 | 112 | 0.0 | 0.0 | 0.00 | 0.00 | 0.00 | 56 | 1012.5 |
| 20260906001005 | 33 | 141 | 0.0 | 0.0 | 0.00 | 0.00 | 0.00 | 55 | 1012.4 |
| 20260905235004 | 34 | 203 | 0.0 | 0.0 | 0.00 | 0.00 | 0.00 | 53 | 1012.3 |
| 20260905234004 | 34 | 161 | 1.6 | 4.8 | 0.00 | 0.00 | 0.00 | 52 | 1012.4 |
| 20260905232004 | 35 | 158 | 0.0 | 4.8 | 0.00 | 0.00 | 0.00 | 51 | 1012.4 |
| 20260905231004 | 35 | 198 | 4.8 | 9.7 | 0.00 | 0.00 | 0.00 | 52 | 1012.4 |
| 20260905230004 | 35 | 169 | 1.6 | 9.7 | 0.00 | 0.00 | 0.00 | 50 | 1012.3 |
| 20260905225005 | 35 | 180 | 1.6 | 11.3 | 0.00 | 0.00 | 0.00 | 51 | 1012.3 |
| 20260905223004 | 36 | 186 | 8.0 | 16.1 | 0.00 | 0.00 | 0.00 | 49 | 1012.4 |
| 20260905222004 | 36 | 162 | 4.8 | 9.7 | 0.00 | 0.00 | 0.00 | 48 | 1012.4 |
| 20260905220004 | 36 | 150 | 3.2 | 12.9 | 0.00 | 0.00 | 0.00 | 47 | 1012.4 |
| 20260905215005 | 36 | 200 | 4.8 | 12.9 | 0.00 | 0.00 | 0.00 | 48 | 1012.2 |
| 20260905213004 | 37 | 137 | 0.0 | 9.7 | 0.00 | 0.00 | 0.00 | 46 | 1012.6 |
| 20260905212004 | 37 | 180 | 4.8 | 12.9 | 0.00 | 0.00 | 0.00 | 45 | 1012.8 |
| 20260905211004 | 37 | 142 | 1.6 | 11.3 | 0.00 | 0.00 | 0.00 | 45 | 1012.9 |
| 20260905210005 | 37 | 145 | 8.0 | 16.1 | 0.00 | 0.00 | 0.00 | 45 | 1013.1 |
| 20260905205004 | 38 | 180 | 1.6 | 12.9 | 0.00 | 0.00 | 0.00 | 43 | 1013.2 |
| 20260905204004 | 38 | 176 | 0.0 | 12.9 | 0.00 | 0.00 | 0.00 | 43 | 1013.4 |
| 20260905202004 | 38 | 175 | 0.0 | 11.3 | 0.00 | 0.00 | 0.00 | 44 | 1013.6 |
| 20260905201004 | 38 | 191 | 3.2 | 12.9 | 0.00 | 0.00 | 0.00 | 44 | 1013.7 |
| 20260905200005 | 38 | 195 | 4.8 | 16.1 | 0.00 | 0.00 | 0.00 | 44 | 1013.8 |
| 20260905195004 | 38 | 187 | 3.2 | 14.5 | 0.00 | 0.00 | 0.00 | 45 | 1013.8 |
| 20260905194004 | 37 | 180 | 0.0 | 16.1 | 0.00 | 0.00 | 0.00 | 45 | 1014.0 |
| 20260905193004 | 38 | 141 | 4.8 | 9.7 | 0.00 | 0.00 | 0.00 | 45 | 1014.0 |
| 20260905192004 | 37 | 130 | 3.2 | 12.9 | 0.00 | 0.00 | 0.00 | 45 | 1014.2 |
| 20260905191004 | 36 | 165 | 0.0 | 4.8 | 0.00 | 0.00 | 0.00 | 50 | 1014.2 |
| 20260905190004 | 36 | 218 | 1.6 | 4.8 | 0.00 | 0.00 | 0.00 | 48 | 1014.4 |
| 20260905185004 | 37 | 109 | 1.6 | 9.7 | 0.00 | 0.00 | 0.00 | 47 | 1014.5 |
| 20260905184005 | 37 | 254 | 0.0 | 4.8 | 0.00 | 0.00 | 0.00 | 46 | 1014.5 |
| 20260905183005 | 37 | 204 | 0.0 | 4.8 | 0.00 | 0.00 | 0.00 | 47 | 1014.5 |